Shoreham, United Kingdom

12:09 AM GMT on February 22, 2017 (GMT +0000)
Shoreham

Weather History for EGKA - October, 2011

Change the Weather History Date:

Friday, October 28, 2011

  Actual Average Record
Temperature  
Mean Temperature 54 °F -  
Max Temperature 56 °F 50 °F 62 °F (2005)
Min Temperature 53 °F 42 °F 28 °F (2003)
Degree Days  
Heating Degree Days 10    
Growing Degree Days 4 (Base 50)    
Moisture  
Dew Point 52 °F    
Average Humidity 91    
Maximum Humidity 100    
Minimum Humidity 77    
Precipitation  
Precipitation 0.04 in - - ()
Sea Level Pressure  
Sea Level Pressure 30.17 in    
Wind  
Wind Speed 8 mph ()    
Max Wind Speed 15 mph    
Max Gust Speed -    
Visibility 3.4 miles    
Events Rain    
Averages and records for this station are not official NWS values.
T = Trace of Precipitation, MM = Missing Value Source: Averaged Metar Reports

Daily Weather History Graph

Daily Weather History Graph

Search for Another Location

Airport or City:

Trip Planner

Search our weather history database for the weather conditions in past years. The results will help you decide how hot, cold, wet, or windy it might be!

Date:

Astronomy

Oct. 28, 2011 Rise Set
Actual Time 7:45 AM BST 5:43 PM BST
Civil Twilight 7:11 AM BST 6:17 PM BST
Nautical Twilight 6:32 AM BST 6:56 PM BST
Astronomical Twilight 5:54 AM BST 7:34 PM BST
Moon 10:02 AM BST (10/28) 6:32 PM BST (10/28)
Length of Visible Light 11h 06m
Length of Day
9h 58m
Waxing Crescent, 4% of the Moon is Illuminated
Oct 28
Waxing Crescent
Nov 2
First Quarter
Nov 10
Full
Nov 18
Last Quarter
Nov 25
New

Hourly Weather History & Observations

Time (BST) Temp. Dew Point Humidity Pressure Visibility Wind Dir Wind Speed Gust Speed Precip Events Conditions
12:50 AM 56 °F 55 °F 95% 29.94 in - North 3.5 mph - -  
3:50 AM 56 °F 54 °F 92% 30.01 in - North 8.1 mph - -  
6:50 AM 54 °F 52 °F 89% 30.09 in - North 15.0 mph - -  
8:50 AM 53.6 °F 51.8 °F 94% 30.12 in 3.1 mi North 12.7 mph - N/A   Haze
9:20 AM 53.6 °F 50.0 °F 88% 30.15 in 3.7 mi North 12.7 mph - N/A   Mostly Cloudy
9:50 AM 53 °F 51 °F 91% 30.17 in - North 11.5 mph - -  
9:50 AM 53.6 °F 51.8 °F 94% 30.15 in 3.7 mi North 11.5 mph - N/A   Mostly Cloudy
10:20 AM 53.6 °F 51.8 °F 94% 30.15 in 3.7 mi North 11.5 mph - N/A   Mostly Cloudy
10:50 AM 53.6 °F 50.0 °F 88% 30.18 in 3.7 mi North 10.4 mph - N/A   Mostly Cloudy
11:20 AM 55.4 °F 51.8 °F 88% 30.18 in 4.3 mi North 8.1 mph - N/A   Mostly Cloudy
11:50 AM 55.4 °F 51.8 °F 88% 30.18 in 4.3 mi North 9.2 mph - N/A   Mostly Cloudy
12:20 PM 55.4 °F 50.0 °F 82% 30.18 in 4.3 mi North 10.4 mph - N/A   Mostly Cloudy
12:50 PM 56 °F 51 °F 77% 30.21 in - NE 8.1 mph - -  
12:50 PM 55.4 °F 51.8 °F 88% 30.18 in 4.3 mi NNE 8.1 mph - N/A   Mostly Cloudy
1:20 PM 55.4 °F 51.8 °F 88% 30.18 in 4.3 mi North 5.8 mph - N/A   Mostly Cloudy
1:50 PM 57.2 °F 51.8 °F 82% 30.21 in 4.3 mi NE 6.9 mph - N/A   Mostly Cloudy
2:20 PM 55.4 °F 51.8 °F 88% 30.21 in 4.3 mi NE 6.9 mph - N/A Rain Light Rain
2:50 PM 55.4 °F 51.8 °F 88% 30.21 in - NE 6.9 mph - N/A   Light Drizzle
3:20 PM 53.6 °F 51.8 °F 94% 30.18 in 1.4 mi NNE 3.5 mph - N/A   Light Drizzle
3:50 PM 54 °F 53 °F 94% 30.21 in - NE 8.1 mph - -  
3:50 PM 53.6 °F 53.6 °F 100% 30.21 in 1.4 mi NE 8.1 mph - N/A   Light Drizzle
4:20 PM 53.6 °F 53.6 °F 100% 30.21 in 1.4 mi NE 5.8 mph - N/A   Light Drizzle
4:50 PM 53.6 °F 53.6 °F 100% 30.21 in - NE 6.9 mph - N/A   Light Drizzle
5:50 PM 53.6 °F 51.8 °F 94% 30.21 in 2.2 mi NNE 5.8 mph - N/A   Light Drizzle
6:20 PM 53.6 °F 51.8 °F 94% 30.21 in 2.2 mi North 6.9 mph - N/A   Light Drizzle
6:50 PM 53 °F 52 °F 95% 30.22 in - North 5.8 mph - -  
6:50 PM 53.6 °F 51.8 °F 94% 30.21 in 3.7 mi North 5.8 mph - N/A   Scattered Clouds
9:50 PM 53 °F 52 °F 97% 30.24 in - NNE 4.6 mph - -